INTELSAT 15 (IS-15)

Last updated on Mon Sep 14 2026 00:02:57 GMT+0000 (Coordinated Universal Time)

1 36106U 09067A 26256.64868623 .00000000 00000+0 00000+0 0 9990 2 36106 0.0177 157.2390 0002309 19.9079 134.1590 1.00269559 42117
UTC large
Height (km)
Speed (km/s)
/
Latitude / Longitude
Inclination (degrees)
Orbital Period (minutes)
Azimuth
Elevation
Range (km)
Doppler Factor

Next 0 passes for location: London (51.5072 / 0.1276)

No passes found over London.
INTELSAT 15 (IS-15)